* Astronomy

Members Login
Username 
 
Password 
    Remember Me  
Post Info TOPIC: Asteroid 2011 CL50


L

Posts: 131433
Date:
RE: Asteroid 2011 CL50
Permalink  
 


Object
Name
Close
Approach
Date
Miss
Distance
(AU)
Miss
Distance
(LD)
Estimated
Diameter*
H
(mag)
Relative
Velocity
(km/s)
(2011 CL50) 2011-Feb-19 0.0160 6.2 8.0 m - 18 m 27.6 3.07


__________________


L

Posts: 131433
Date:
Permalink  
 

Orbital elements:
2011 CL50 Earth MOID = 0.0021 AU
Epoch 2011 Feb. 8.0 TT = JDT 2455600.5 MPC
M 194.26860 (2000.0) P Q
n 1.18729549 Peri. 283.62179 +0.62443061 +0.78107929
a 0.8832768 Node 25.01875 -0.71547939 +0.57262772
e 0.1469971 Incl. 0.16939 -0.31332995 +0.24902339
P 0.83 H 27.6 G 0.15 U 7

MPEC 2011 - C89


__________________
Page 1 of 1  sorted by
 
Quick Reply

Please log in to post quick replies.



Create your own FREE Forum
Report Abuse
Powered by ActiveBoard